When you browse on this site, cookies collect data to enhance your experience and personalize the content and advertising you see.
Visit our Privacy Policy to learn more. By continuing to use the site, you agree to this use of cookies and data.
  • In Lithuania
  • List of Countries
  • For 7 days
  • Water Temperature
  • Weather Map
  • Weather Widgets
  • user-avatar
    Login

    Hourly Weather Wiktoria

    Today, 6 December, Friday

    Time Temperature Precipitation Wind Pressure Humidity
    00:00 +13°C° 0 mm 3 mps 745 mmHg 79%
    01:00 +12°C° 0 mm 3 mps 745 mmHg 85%
    02:00 +11°C° 0 mm 3 mps 745 mmHg 86%
    03:00 +11°C° 0 mm 3 mps 745 mmHg 86%
    04:00 +10°C° 0 mm 2 mps 744 mmHg 89%
    05:00 +11°C° 0 mm 3 mps 745 mmHg 82%
    06:00 +12°C° 0 mm 3 mps 745 mmHg 76%
    07:00 +13°C° 0 mm 3 mps 746 mmHg 69%
    08:00 +15°C° 0 mm 4 mps 746 mmHg 60%
    09:00 +18°C° 0 mm 4 mps 746 mmHg 50%
    10:00 +20°C° 0 mm 5 mps 746 mmHg 41%
    11:00 +22°C° 0 mm 6 mps 746 mmHg 37%
    12:00 +23°C° 0 mm 7 mps 746 mmHg 33%
    13:00 +24°C° 0 mm 7 mps 746 mmHg 29%
    14:00 +24°C° 0 mm 7 mps 746 mmHg 29%
    15:00 +24°C° 0 mm 7 mps 745 mmHg 29%
    16:00 +24°C° 0 mm 7 mps 745 mmHg 29%
    17:00 +23°C° 0 mm 6 mps 746 mmHg 33%
    18:00 +21°C° 0 mm 5 mps 746 mmHg 37%
    19:00 +20°C° 0 mm 5 mps 747 mmHg 41%
    20:00 +17°C° 0 mm 5 mps 747 mmHg 48%
    21:00 +15°C° 0 mm 4 mps 748 mmHg 55%
    22:00 +12°C° 0 mm 4 mps 749 mmHg 62%
    23:00 +11°C° 0 mm 4 mps 749 mmHg 66%

    Tomorrow, 7 December, Saturday

    Time Temperature Precipitation Wind Pressure Humidity
    00:00 +10°C° 0 mm 4 mps 749 mmHg 70%
    01:00 +9°C° 0 mm 3 mps 749 mmHg 74%
    02:00 +9°C° 0 mm 3 mps 749 mmHg 78%
    03:00 +8°C° 0 mm 3 mps 749 mmHg 81%
    04:00 +8°C° 0 mm 3 mps 749 mmHg 84%
    05:00 +8°C° 0 mm 4 mps 749 mmHg 77%
    06:00 +10°C° 0 mm 4 mps 750 mmHg 70%
    07:00 +11°C° 0 mm 4 mps 750 mmHg 63%
    08:00 +14°C° 0 mm 4 mps 750 mmHg 55%
    09:00 +18°C° 0 mm 4 mps 750 mmHg 46%
    10:00 +20°C° 0 mm 4 mps 749 mmHg 37%
    11:00 +22°C° 0 mm 4 mps 749 mmHg 34%
    12:00 +25°C° 0 mm 5 mps 749 mmHg 31%
    13:00 +27°C° 0 mm 5 mps 749 mmHg 28%
    14:00 +27°C° 0 mm 4 mps 748 mmHg 27%
    15:00 +28°C° 0 mm 4 mps 748 mmHg 26%
    16:00 +28°C° 0 mm 4 mps 748 mmHg 25%
    17:00 +27°C° 0 mm 4 mps 748 mmHg 29%
    18:00 +25°C° 0 mm 5 mps 749 mmHg 33%
    19:00 +23°C° 0 mm 5 mps 750 mmHg 37%
    20:00 +20°C° 0 mm 5 mps 750 mmHg 45%
    21:00 +18°C° 0 mm 4 mps 751 mmHg 52%
    22:00 +15°C° 0 mm 4 mps 751 mmHg 60%
    23:00 +14°C° 0 mm 4 mps 751 mmHg 63%

    Day after tomorrow, 8 December, Sunday

    Time Temperature Precipitation Wind Pressure Humidity
    00:00 +13°C° 0 mm 4 mps 751 mmHg 66%
    01:00 +12°C° 0 mm 4 mps 751 mmHg 69%
    02:00 +11°C° 0 mm 3 mps 751 mmHg 73%
    03:00 +11°C° 0 mm 3 mps 751 mmHg 76%
    04:00 +10°C° 0 mm 2 mps 751 mmHg 80%
    05:00 +13°C° 0 mm 2 mps 751 mmHg 71%
    06:00 +15°C° 0 mm 2 mps 751 mmHg 62%
    07:00 +16°C° 0 mm 2 mps 752 mmHg 53%
    08:00 +20°C° 0 mm 2 mps 752 mmHg 44%
    09:00 +24°C° 0 mm 1 mps 752 mmHg 35%
    10:00 +27°C° 0 mm 1 mps 752 mmHg 27%
    11:00 +29°C° 0 mm 1 mps 751 mmHg 24%
    12:00 +30°C° 0 mm 1 mps 751 mmHg 22%
    13:00 +32°C° 0 mm 2 mps 750 mmHg 20%
    14:00 +32°C° 0 mm 2 mps 750 mmHg 20%
    15:00 +34°C° 0 mm 3 mps 749 mmHg 19%
    16:00 +34°C° 0 mm 3 mps 749 mmHg 19%
    17:00 +31°C° 0 mm 3 mps 749 mmHg 23%
    18:00 +30°C° 0 mm 3 mps 750 mmHg 27%
    19:00 +28°C° 0 mm 3 mps 750 mmHg 31%
    20:00 +26°C° 0 mm 3 mps 750 mmHg 36%
    21:00 +24°C° 0 mm 3 mps 750 mmHg 41%
    22:00 +21°C° 0 mm 2 mps 751 mmHg 46%
    23:00 +21°C° 0 mm 2 mps 750 mmHg 48%

    9 December, Monday

    Time Temperature Precipitation Wind Pressure Humidity
    00:00 +20°C° 0 mm 2 mps 750 mmHg 51%
    01:00 +19°C° 0 mm 2 mps 750 mmHg 53%
    02:00 +19°C° 0 mm 3 mps 750 mmHg 53%
    03:00 +19°C° 0 mm 4 mps 750 mmHg 54%
    04:00 +19°C° 0 mm 4 mps 749 mmHg 54%
    05:00 +20°C° 0 mm 4 mps 750 mmHg 55%
    06:00 +21°C° 0 mm 5 mps 750 mmHg 56%
    07:00 +22°C° 0 mm 5 mps 750 mmHg 57%
    08:00 +26°C° 0 mm 5 mps 750 mmHg 48%
    09:00 +29°C° 0 mm 5 mps 750 mmHg 38%
    10:00 +33°C° 0 mm 5 mps 751 mmHg 29%
    11:00 +35°C° 0 mm 4 mps 750 mmHg 24%
    12:00 +37°C° 0 mm 4 mps 749 mmHg 19%
    13:00 +40°C° 0 mm 4 mps 748 mmHg 14%
    14:00 +41°C° 0 mm 4 mps 748 mmHg 13%
    15:00 +41°C° 0 mm 4 mps 747 mmHg 11%
    16:00 +42°C° 0 mm 4 mps 746 mmHg 10%
    17:00 +39°C° 0 mm 3 mps 746 mmHg 11%
    18:00 +37°C° 0 mm 3 mps 746 mmHg 12%
    19:00 +35°C° 0 mm 2 mps 746 mmHg 13%
    20:00 +32°C° 0 mm 2 mps 746 mmHg 15%
    21:00 +30°C° 0 mm 3 mps 746 mmHg 17%
    22:00 +29°C° 0 mm 3 mps 747 mmHg 19%
    23:00 +27°C° 0 mm 3 mps 747 mmHg 22%

    10 December, Tuesday

    Time Temperature Precipitation Wind Pressure Humidity
    00:00 +26°C° 0 mm 2 mps 746 mmHg 25%
    01:00 +25°C° 0 mm 2 mps 746 mmHg 28%
    02:00 +24°C° 0 mm 3 mps 746 mmHg 33%
    03:00 +22°C° 0 mm 3 mps 747 mmHg 39%
    04:00 +21°C° 0 mm 3 mps 747 mmHg 45%
    05:00 +21°C° 0 mm 3 mps 747 mmHg 43%
    06:00 +22°C° 0 mm 4 mps 747 mmHg 42%
    07:00 +23°C° 0 mm 4 mps 747 mmHg 41%
    08:00 +26°C° 0 mm 4 mps 747 mmHg 37%
    09:00 +29°C° 0 mm 4 mps 747 mmHg 33%
    10:00 +32°C° 0 mm 4 mps 748 mmHg 28%
    11:00 +33°C° 0 mm 4 mps 747 mmHg 26%
    12:00 +34°C° 0 mm 5 mps 747 mmHg 25%
    13:00 +35°C° 0 mm 6 mps 746 mmHg 23%
    14:00 +34°C° 0 mm 6 mps 746 mmHg 24%
    15:00 +33°C° 0 mm 7 mps 746 mmHg 25%
    16:00 +32°C° 0 mm 7 mps 746 mmHg 26%
    17:00 +29°C° 0 mm 7 mps 746 mmHg 30%
    18:00 +27°C° 0 mm 7 mps 746 mmHg 34%
    19:00 +23°C° 0 mm 7 mps 747 mmHg 38%
    20:00 +21°C° 0 mm 7 mps 747 mmHg 42%
    21:00 +19°C° 0 mm 6 mps 748 mmHg 45%
    22:00 +15°C° 0 mm 6 mps 748 mmHg 49%
    23:00 +14°C° 0 mm 6 mps 748 mmHg 52%

    11 December, Wednesday

    Time Temperature Precipitation Wind Pressure Humidity
    00:00 +13°C° 0 mm 6 mps 748 mmHg 56%
    01:00 +11°C° 0 mm 6 mps 748 mmHg 60%
    02:00 +11°C° 0 mm 6 mps 748 mmHg 63%
    03:00 +10°C° 0 mm 6 mps 747 mmHg 66%
    04:00 +10°C° 0 mm 5 mps 747 mmHg 69%
    05:00 +12°C° 0 mm 5 mps 747 mmHg 64%
    06:00 +13°C° 0 mm 5 mps 747 mmHg 59%
    07:00 +14°C° 0 mm 5 mps 748 mmHg 55%
    08:00 +19°C° 0 mm 5 mps 747 mmHg 47%
    09:00 +22°C° 0 mm 5 mps 747 mmHg 38%
    10:00 +26°C° 0 mm 4 mps 747 mmHg 30%
    11:00 +27°C° 0 mm 5 mps 747 mmHg 27%
    12:00 +29°C° 0 mm 5 mps 746 mmHg 24%
    13:00 +30°C° 0 mm 6 mps 746 mmHg 21%
    14:00 +29°C° 0 mm 7 mps 746 mmHg 24%
    15:00 +29°C° 0 mm 7 mps 745 mmHg 26%
    16:00 +28°C° 0 mm 8 mps 745 mmHg 28%
    17:00 +24°C° 0 mm 8 mps 745 mmHg 34%
    18:00 +22°C° 0 mm 7 mps 745 mmHg 40%
    19:00 +20°C° 0 mm 7 mps 745 mmHg 46%
    20:00 +17°C° 0 mm 7 mps 746 mmHg 52%
    21:00 +15°C° 0 mm 6 mps 746 mmHg 58%
    22:00 +13°C° 0 mm 6 mps 746 mmHg 64%
    23:00 +13°C° 0 mm 6 mps 746 mmHg 67%
    Show more